Tracking 19193 objects as of 22-Jun-2018
HD Live streaming from Space Station
objects crossing your sky now

FLOCK 2K 20

Track FLOCK 2K 20 now!
10-day predictions
FLOCK 2K 20 is classified as:


NORAD ID: 42885
Int'l Code: 2017-042BN
Perigee: 452.7 km
Apogee: 472.3 km
Inclination: 97.0 °
Period: 93.7 minutes
Semi major axis: 6833 km
RCS: Unknown
Launch date: July 14, 2017
Source: United States (US)
Launch site: TYURATAM MISSILE AND SPACE COMPLEX (TTMTR)
aabbcc
Your satellite tracking list
Your tracking list is empty




NASA's NSSDC Master Catalog

Two Line Element Set (TLE):
1 42885U 17042BN  18172.95270977 +.00003160 +00000-0 +89451-4 0  9997
2 42885 096.9803 069.3792 0014355 084.8800 275.4083 15.36885072052377
Source of the keplerian elements: AFSPC